Aeroporto :
LOGIN :

Iscrizione | Disclaimer

   EN    FR    IT 

 










Sommario :    VFR   VFR Marginale   IFR   IFR Intensivo   IFR Molto Intensivo
Visibilità : 
Base nubi : 
>= 8 km
>= 3000ft
5 / 8 km
1000 / 3000 ft
1500m / 5 km
500 / 1000 ft
800 / 1500m
200 / 500 ft
< 800m
< 200 ft
Simboli :   Temporali  Nebbia  Neve Forte  Precipitazioni Forti  Vento > 20 kt
SIGMETs :   Varie  Temporali  Ghiacco  Turbolenza  Onda orograficha  Ceneri Vulcaniche






- Altitudine del aeroporto : 286 ft
- Codice IATA : FFD


EGVA - RAF Fairford

ULTIMO METAR :
  • 120056Z AUTO 23008KT 9999 M 04/02 A2954 RMK AO2 SLP009 T00360015 $

METARs OBSOLETI :
  • 112356Z AUTO 24010KT 9999 FEW060 SCT150 04/02 A2955 RMK AO2 RAE03 SLP012 P0000 60000 T00430015 10054 20042 401030038 55005 $
  • 112303Z AUTO 26014KT 9999 SCT140 05/01 A2956 RMK AO2 RAE03 SLP015 $

Previsioni scadute.



MetMap, La meteo Aeronautica in un colpo d'occhio ! - Copyright ORBIFLY Dicembre 2007 - Disclaimer

ORBIFLY MET'MAP TEAM :

Programmazione e sviluppo : Alexandra Zaïnal
Concezione e sviluppo : Baudouin d'Aumeries
Co-Programmazione e sviluppo : Marc-Olivier Méhu
Supporto tecnico e logistico : Manuel Goepfert
Aiuto per la traduzione : Arnaldo La Scala

Contatto : metmap@orbifly.com




FONTI E CREDITI :

   NOAA